Theta_e
323 328 328 326 326 326 328 332 335 333 331 331 332 332 332 330 333 337 337 338 337 339 337 336 339 338 332 332 333 328 328 328 329 330 327 327 331 329 332 331 329 328 327 326
326 327 326 325 324 328 332 332 334 330 329 331 332 331 331 332 336 336 336 338 339 338 336 340 336 334 332 332 333 329 328 329 330 332 327 328 331 331 330 329 328 328 327 326
327 326 322 325 329 331 329 334 333 332 329 329 331 332 332 331 336 338 337 337 338 338 340 339 334 334 333 329 329 330 331 331 331 331 331 329 328 328 327 327 326 324 323 322
326 325 325 330 330 330 332 328 328 330 331 332 328 333 332 330 335 338 339 339 339 339 339 337 334 331 330 329 330 327 325 324 323 325 327 325 322 321 321 320 320 320 320 319
327 328 329 331 329 327 331 328 331 331 332 333 331 333 332 330 334 338 339 339 339 338 337 334 329 329 328 325 323 321 319 318 319 320 320 319 317 318 319 319 318 316 315 313
328 326 329 329 328 327 327 330 330 330 332 334 331 332 333 333 332 335 336 336 335 332 330 328 327 326 323 321 319 317 319 315 316 316 315 316 316 316 316 315 312 309 307 307
331 330 330 330 331 329 328 331 332 334 335 335 330 332 333 331 331 333 333 333 331 330 329 327 325 322 320 319 319 320 315 316 317 317 317 316 315 312 310 308 307 307 307 307
331 332 332 330 331 332 331 331 331 332 336 334 331 334 333 329 330 330 330 330 330 329 327 325 321 320 321 320 321 319 317 318 317 317 315 313 310 307 307 307 308 308 308 308
334 333 330 331 330 330 332 335 329 334 328 333 332 332 330 330 331 329 329 329 328 327 326 323 321 321 320 321 322 320 318 318 316 315 313 311 308 307 307 307 308 308 309 309
333 335 332 332 329 329 332 329 333 332 335 333 332 332 333 333 333 329 329 328 327 327 324 322 321 321 321 321 322 321 319 317 315 313 311 309 308 307 307 308 309 309 309 309
331 335 333 331 333 334 332 333 330 330 330 333 333 333 329 333 331 330 329 328 328 327 324 322 322 321 322 322 322 321 318 316 314 312 310 308 308 309 309 309 309 309 309 308
331 337 336 333 330 331 331 331 330 332 334 331 333 334 329 330 329 329 329 327 328 325 324 322 321 321 321 322 322 320 317 315 313 311 308 308 308 309 309 309 309 308 308 308
334 335 337 335 330 331 333 331 329 330 332 335 333 333 329 328 329 328 329 325 324 324 323 322 322 322 321 322 322 318 316 314 312 309 309 309 309 309 309 309 309 308 308 308
330 333 335 329 328 331 334 332 330 333 335 335 335 333 333 331 330 329 328 324 323 323 322 322 322 323 321 321 319 317 315 313 310 309 310 310 309 309 309 309 309 310 308 309
334 336 332 331 331 332 332 332 332 333 332 334 332 333 333 331 330 329 327 324 323 323 322 322 322 322 321 319 316 316 314 311 308 308 310 309 309 309 310 309 310 310 310 309
333 338 333 334 331 331 332 331 331 331 331 332 331 333 330 329 328 328 327 325 325 323 321 322 321 321 318 316 316 315 313 309 308 308 310 309 309 309 310 310 310 310 310 310
335 335 334 336 331 331 331 333 332 332 331 332 333 331 329 329 329 328 327 326 325 322 320 320 320 321 316 316 315 315 313 309 308 308 308 308 308 309 310 310 310 310 310 310
335 335 332 335 332 333 330 332 332 332 332 331 331 330 330 330 329 327 326 326 324 321 319 319 321 320 316 316 315 315 313 309 309 308 308 308 308 307 309 310 310 310 310 310
332 335 335 334 334 333 333 333 333 333 333 332 332 329 329 328 328 328 326 325 323 320 319 319 321 319 317 316 315 315 312 310 310 309 308 307 309 306 308 310 310 309 310 311
330 333 336 334 335 335 334 332 331 331 333 331 331 330 329 328 331 329 326 325 322 320 319 319 321 319 317 316 315 314 311 311 309 308 308 308 308 307 307 309 309 309 309 310
335 334 335 332 335 333 329 330 329 332 328 330 331 330 329 330 329 325 325 323 321 320 318 319 321 320 318 316 314 314 310 310 309 308 308 309 305 306 306 306 306 308 308 310
336 338 338 333 336 336 328 331 333 331 325 326 327 327 330 327 327 326 324 322 321 318 317 319 320 320 318 316 313 314 310 310 308 308 308 308 305 308 309 309 307 306 308 311
336 334 337 336 335 328 331 330 329 324 324 328 326 326 327 327 327 326 323 322 318 315 317 318 319 320 318 316 314 314 311 310 307 308 308 308 306 309 310 310 310 307 308 311
328 327 333 332 331 328 327 328 327 326 325 325 325 327 323 326 327 325 322 321 315 315 318 317 317 319 318 316 315 314 312 310 308 308 308 309 310 310 310 311 310 309 307 310
328 327 329 331 327 326 327 328 327 327 327 325 326 325 322 322 323 323 322 320 314 315 316 317 317 318 318 316 315 314 313 310 308 308 308 309 310 311 311 311 311 311 311 309
324 330 331 331 328 329 327 326 328 328 326 325 326 328 324 323 323 323 322 317 314 313 314 315 316 317 319 317 316 314 313 309 309 309 309 308 310 310 311 311 312 312 312 312
Wind_Speed
3 3 7 5 1 8 10 12 14 9 3 13 14 17 16 15 17 6 7 7 1 2 5 11 10 11 12 15 19 19 13 13 17 22 18 17 18 16 16 17 19 22 23 23
3 4 1 4 8 12 14 15 8 10 15 15 16 16 12 19 14 13 8 8 8 9 11 14 17 14 13 18 18 17 18 19 23 23 18 21 18 13 14 15 17 20 22 24
3 4 4 4 5 9 6 7 9 16 9 8 9 14 13 12 17 17 16 11 10 10 12 11 15 14 14 19 22 22 22 22 21 22 20 19 17 16 17 17 19 18 17 17
3 6 6 9 6 4 2 3 8 15 10 4 6 5 8 11 13 17 16 15 12 11 13 12 15 17 21 22 21 22 23 24 25 24 22 21 20 21 20 20 19 19 19 19
3 6 6 8 3 2 2 4 13 8 9 5 7 4 4 5 9 12 16 15 13 11 11 13 16 17 18 19 21 23 25 26 26 24 25 25 26 24 23 22 23 23 23 24
3 1 4 3 4 2 8 8 8 4 1 2 4 2 3 2 3 5 10 14 14 12 13 15 17 16 19 22 24 24 21 22 20 22 23 23 25 25 25 26 27 27 25 23
4 4 2 5 2 6 2 2 3 4 1 1 3 2 3 2 3 5 7 9 8 9 10 13 16 19 20 18 18 17 21 19 19 20 21 22 23 22 22 21 18 17 17 16
3 4 6 6 4 2 4 1 1 3 2 2 0 2 4 2 2 5 6 7 7 8 10 14 16 15 14 16 14 17 18 16 17 20 21 22 22 20 17 15 14 14 15 15
4 3 1 5 6 2 2 2 2 5 1 3 1 1 3 3 5 6 7 8 9 8 9 13 12 13 14 13 10 14 16 16 19 21 23 24 22 17 15 15 16 16 17 17
5 4 1 2 2 11 3 6 1 2 2 2 1 3 3 8 9 4 4 4 4 3 8 12 11 11 12 13 12 14 16 19 21 23 26 23 19 18 17 17 17 17 17 17
4 2 2 2 5 3 1 2 4 3 2 1 1 0 1 10 8 4 3 0 3 1 7 10 10 12 13 14 14 14 16 19 22 25 26 20 18 18 19 17 18 18 18 18
2 3 3 3 1 1 1 2 1 2 1 2 2 1 1 6 7 5 3 3 4 2 6 9 11 11 13 14 14 15 17 20 22 24 23 20 18 18 19 19 19 19 19 17
7 2 3 3 3 2 0 2 3 4 1 2 3 2 3 6 6 5 5 6 3 2 6 9 10 12 15 14 14 15 17 20 21 22 18 18 18 20 20 21 21 20 19 17
5 3 2 1 1 1 3 2 2 1 2 2 3 2 8 9 8 9 8 7 3 3 6 9 10 12 15 15 14 15 17 20 19 20 16 18 19 19 19 19 20 23 20 18
3 4 3 3 1 1 3 0 3 3 1 3 3 3 1 10 11 8 9 6 1 3 7 8 10 12 14 15 16 15 17 20 21 20 15 19 18 18 18 18 20 21 21 19
1 4 3 3 1 1 3 3 3 1 2 3 1 3 3 8 12 8 7 5 1 4 7 8 9 11 14 13 16 14 17 17 20 18 16 19 18 18 17 18 20 21 20 19
3 5 2 3 2 1 1 2 2 1 2 1 1 3 8 9 11 9 7 5 1 4 7 7 8 9 13 14 16 13 17 14 18 18 16 18 18 18 17 18 18 19 20 19
5 4 2 3 1 2 3 2 4 3 1 4 0 1 7 8 7 6 2 4 1 3 6 7 7 6 11 14 16 14 16 12 15 17 16 16 18 16 15 16 17 17 19 19
5 4 3 2 1 3 2 3 3 1 1 1 3 7 6 10 8 4 4 2 1 3 6 5 4 4 9 12 16 15 14 11 14 15 15 16 16 16 13 13 15 17 17 18
7 7 2 3 2 2 1 3 4 3 2 1 5 10 11 11 4 4 4 3 2 4 5 4 3 4 8 11 15 15 12 11 13 15 13 13 15 14 13 12 14 15 15 16
2 3 2 3 2 3 3 7 6 2 2 5 6 9 11 6 5 7 4 5 3 3 4 3 4 4 7 11 15 15 11 11 14 14 11 13 12 13 14 14 13 13 13 12
4 4 3 3 2 4 11 6 4 7 12 11 9 7 11 7 7 6 5 5 2 4 3 3 4 4 5 9 12 13 11 11 13 11 9 11 9 11 13 14 14 12 12 10
3 3 2 6 2 1 19 2 10 17 14 9 10 7 5 11 9 5 7 4 3 3 2 3 3 4 4 6 10 11 11 10 12 9 9 10 8 10 12 12 12 12 11 9
2 3 2 3 4 5 14 11 10 15 10 9 7 10 6 7 11 8 9 5 2 2 1 1 2 1 3 5 9 10 10 8 10 8 8 8 9 10 10 11 12 11 9 7
1 7 3 4 4 3 8 21 11 16 11 9 8 13 12 10 10 11 10 5 3 2 1 1 2 1 4 5 8 9 8 6 6 8 7 7 8 9 10 10 10 9 9 7
7 4 4 2 4 6 6 15 20 18 15 10 7 16 12 9 9 12 10 5 3 2 2 2 2 2 6 6 7 7 7 5 4 5 7 6 5 8 10 10 9 10 8 7
Wind_Direction
36 77 36 14 104 113 105 120 123 113 73 63 68 56 33 30 63 65 29 76 225 15 359 25 21 39 36 13 7 4 354 343 349 349 340 341 327 315 309 308 301 302 303 301
79 58 34 70 145 116 111 124 118 90 97 93 86 67 56 36 27 34 41 53 58 45 49 47 46 39 15 3 5 1 359 351 344 347 341 340 336 327 317 316 317 314 311 312
53 0 206 181 141 102 85 140 166 142 124 107 88 60 45 44 44 50 47 46 43 47 34 43 33 25 18 14 9 2 355 352 352 345 343 341 343 340 337 332 333 336 335 330
54 9 121 107 83 28 68 315 177 147 168 124 345 113 46 18 48 47 51 46 46 39 30 25 16 20 18 14 17 19 15 5 5 4 6 8 8 4 359 354 347 340 333 327
50 53 75 76 34 4 25 109 141 120 95 157 38 116 102 25 40 32 32 31 37 36 30 30 27 23 27 29 15 4 359 358 5 7 6 2 1 357 350 341 335 329 327 327
78 104 48 35 49 32 140 96 75 68 94 107 11 291 132 20 327 32 43 40 37 42 40 48 52 41 23 11 2 0 357 355 357 358 359 360 354 345 338 333 332 335 337 337
70 33 45 31 121 91 49 163 170 203 144 51 331 231 83 339 15 12 31 47 40 46 55 51 35 16 3 3 7 7 8 17 15 9 1 355 347 339 332 336 344 345 345 348
120 146 9 354 36 26 56 326 11 295 201 166 84 202 107 347 83 81 67 61 65 61 53 36 16 11 13 11 11 10 16 14 8 1 357 352 349 350 356 1 5 5 7 4
141 121 48 49 54 319 111 61 70 107 42 225 43 161 202 191 155 106 73 61 59 58 49 33 16 13 9 5 3 7 9 5 360 360 358 356 357 3 10 12 11 9 6 1
168 125 12 48 163 59 33 127 219 104 171 246 178 268 231 187 189 124 106 70 79 63 47 30 13 3 357 354 355 360 0 359 359 0 360 360 10 20 18 13 11 8 7 5
135 94 159 245 30 10 92 118 68 94 343 283 280 228 201 193 167 151 147 336 168 62 34 21 7 352 347 348 349 354 356 356 359 1 1 9 12 11 12 9 8 7 4 6
63 106 108 74 40 9 22 81 74 315 160 54 335 62 165 194 155 149 131 125 159 64 24 13 5 355 347 347 352 353 354 358 359 1 6 12 13 15 14 15 11 8 8 4
173 44 120 151 159 137 9 72 98 106 168 165 306 26 142 156 165 188 169 163 151 60 13 11 7 2 359 352 353 353 355 358 359 5 9 12 16 17 15 15 13 8 4 8
117 93 127 216 79 92 148 140 141 78 272 137 241 291 191 190 179 166 167 169 151 18 7 5 7 5 5 2 358 355 357 360 4 8 12 12 16 14 16 15 19 17 18 17
75 101 106 55 265 129 95 169 204 237 316 259 3 235 345 186 171 161 165 172 162 4 12 7 7 8 14 8 8 3 3 4 9 10 16 19 17 16 14 17 19 16 18 18
29 132 138 81 17 200 126 70 93 219 166 261 291 247 28 138 147 155 170 173 245 354 6 4 3 10 14 21 15 9 5 13 15 16 24 18 17 16 16 18 19 15 16 18
75 133 129 129 2 84 224 19 352 159 252 273 301 18 153 154 167 161 164 183 270 350 359 356 356 10 21 23 13 2 2 11 16 19 15 15 13 15 13 11 14 15 16 16
118 96 65 116 153 212 55 330 244 258 235 188 231 140 171 174 168 165 157 168 298 342 355 351 351 9 21 20 12 2 358 3 9 13 11 8 11 12 13 17 19 17 18 17
64 118 100 156 169 318 228 186 188 191 51 170 129 129 132 142 145 175 189 191 255 334 348 349 346 5 17 12 10 5 359 1 3 5 6 6 7 7 9 15 19 21 22 24
64 68 112 156 212 241 111 175 190 164 54 153 155 161 154 157 183 82 194 211 243 315 346 343 337 358 4 2 6 5 5 7 6 4 5 8 8 17 18 15 12 18 23 28
72 40 136 150 217 268 184 168 165 199 85 168 180 181 172 188 100 109 134 183 246 322 341 330 318 329 346 356 3 8 11 6 6 11 19 14 22 27 25 22 16 24 29 37
179 151 162 139 193 266 163 143 210 146 168 161 165 183 189 176 162 127 150 205 274 316 327 341 312 313 338 5 14 10 13 10 9 16 19 14 26 23 17 19 20 25 32 40
204 208 202 207 210 90 182 195 194 173 170 167 168 166 182 192 183 161 189 208 285 283 298 328 324 292 330 359 8 7 9 16 16 18 16 18 23 16 14 13 16 17 35 47
194 181 236 198 173 227 213 209 194 185 166 150 147 134 132 176 198 203 206 217 265 235 247 329 345 278 293 325 351 357 5 17 20 21 20 28 19 18 19 13 17 22 26 43
79 157 167 262 251 260 238 215 209 190 175 160 168 154 139 158 188 213 200 221 233 208 227 254 338 245 259 291 332 344 358 10 24 24 21 19 23 21 16 13 9 13 18 27
191 169 193 236 223 211 234 224 216 196 188 172 189 181 175 179 195 204 201 218 221 220 232 243 284 254 255 271 313 329 346 359 354 360 6 9 12 4 7 8 5 1 2 6